TimeCST,TemperatureF,Dew PointF,Humidity,Sea Level PressureIn,VisibilityMPH,Wind Direction,Wind SpeedMPH,Gust SpeedMPH,PrecipitationIn,Events,Conditions,WindDirDegrees,DateUTC
12:24 AM,46.4,44.6,93,30.02,8.0,NW,9.2,-,N/A,,Overcast,310,2013-01-17 06:24:00
12:53 AM,46.0,44.1,93,30.04,5.0,West,11.5,-,N/A,,Overcast,280,2013-01-17 06:53:00
1:32 AM,44.6,42.8,93,30.02,8.0,WNW,8.1,-,N/A,,Overcast,290,2013-01-17 07:32:00
1:53 AM,45.0,44.1,97,30.04,9.0,West,4.6,-,N/A,,Overcast,280,2013-01-17 07:53:00
2:53 AM,44.6,42.8,93,30.02,10.0,West,12.7,-,N/A,,Overcast,280,2013-01-17 08:53:00
3:53 AM,45.0,42.1,90,30.04,10.0,West,12.7,19.6,0.00,,Overcast,280,2013-01-17 09:53:00
4:13 AM,44.6,41.0,87,30.04,10.0,West,16.1,23.0,N/A,,Overcast,270,2013-01-17 10:13:00
4:53 AM,42.1,39.0,89,30.08,10.0,West,18.4,-,0.00,,Overcast,280,2013-01-17 10:53:00
5:06 AM,42.8,39.2,87,30.07,5.0,West,19.6,25.3,0.00,Rain,Light Rain,270,2013-01-17 11:06:00
5:23 AM,41.0,37.4,87,30.07,10.0,West,12.7,-,0.00,,Overcast,270,2013-01-17 11:23:00
5:53 AM,41.0,37.4,87,30.07,10.0,West,11.5,20.7,N/A,,Overcast,260,2013-01-17 11:53:00
6:27 AM,39.2,35.6,87,30.07,10.0,West,13.8,-,N/A,,Overcast,260,2013-01-17 12:27:00
6:53 AM,39.9,36.0,86,30.09,10.0,West,15.0,24.2,N/A,,Overcast,270,2013-01-17 12:53:00
7:53 AM,39.9,36.0,86,30.12,10.0,West,17.3,23.0,N/A,,Overcast,280,2013-01-17 13:53:00
8:53 AM,39.0,33.1,79,30.16,10.0,WNW,20.7,28.8,N/A,,Overcast,300,2013-01-17 14:53:00
9:53 AM,39.9,30.9,70,30.17,10.0,WNW,19.6,31.1,N/A,,Overcast,290,2013-01-17 15:53:00
10:53 AM,41.0,30.9,67,30.17,10.0,WNW,16.1,32.2,N/A,,Overcast,290,2013-01-17 16:53:00
11:53 AM,42.1,30.9,65,30.15,10.0,NW,19.6,32.2,N/A,,Overcast,310,2013-01-17 17:53:00
12:53 PM,45.0,32.0,60,30.14,10.0,NW,21.9,31.1,N/A,,Overcast,320,2013-01-17 18:53:00
1:53 PM,46.9,33.1,59,30.14,10.0,NW,24.2,32.2,N/A,,Mostly Cloudy,310,2013-01-17 19:53:00
2:53 PM,46.9,33.1,59,30.16,10.0,NNW,23.0,34.5,N/A,,Mostly Cloudy,330,2013-01-17 20:53:00
3:53 PM,48.9,34.0,56,30.19,10.0,NW,23.0,29.9,N/A,,Mostly Cloudy,320,2013-01-17 21:53:00
4:53 PM,48.0,35.1,61,30.21,10.0,NW,17.3,26.5,N/A,,Clear,320,2013-01-17 22:53:00
5:53 PM,46.0,33.1,61,30.25,10.0,NW,19.6,26.5,N/A,,Clear,320,2013-01-17 23:53:00
6:53 PM,45.0,33.1,63,30.29,10.0,NNW,18.4,24.2,N/A,,Clear,330,2013-01-18 00:53:00
7:53 PM,44.1,33.1,65,30.30,10.0,NW,16.1,24.2,N/A,,Clear,320,2013-01-18 01:53:00
8:53 PM,44.1,34.0,68,30.32,10.0,NNW,16.1,24.2,N/A,,Clear,340,2013-01-18 02:53:00
9:53 PM,44.1,34.0,68,30.32,10.0,NNW,18.4,24.2,N/A,,Clear,330,2013-01-18 03:53:00
10:53 PM,43.0,34.0,71,30.30,10.0,NNW,12.7,-,N/A,,Clear,330,2013-01-18 04:53:00
11:53 PM,42.1,34.0,73,30.31,10.0,NNW,13.8,20.7,N/A,,Clear,330,2013-01-18 05:53:00